GFSFLT2_500_rhum_000.txt.gz
RH
12 9 6 3 5 5 5 6 6 7 8 8 11 14 16 18 21 23 19 24 26 26 25 26 27 26 26 27 29 31 32 35
8 4 3 4 5 5 4 5 6 8 12 14 18 21 23 21 18 16 20 19 18 17 19 18 18 20 27 32 32 31 32 34
2 3 3 4 5 5 8 12 16 17 20 24 26 22 18 15 20 17 12 16 18 23 28 29 28 27 33 32 33 34 32 33
7 6 6 5 8 12 18 24 26 29 33 40 47 45 46 47 42 39 28 36 36 33 36 35 37 39 39 33 30 28 31 34
6 9 9 12 18 22 22 25 34 51 64 75 76 68 60 57 55 55 45 43 41 38 41 44 42 40 36 34 31 28 26 26
12 11 12 16 20 26 27 41 36 55 90 90 72 46 56 57 44 45 47 44 47 43 41 39 38 35 34 34 34 34 32 31
14 14 15 21 24 32 43 38 36 46 76 72 53 40 34 27 29 39 43 41 39 36 37 35 34 34 35 35 35 33 31 30
18 20 20 21 18 17 49 54 54 65 87 48 42 44 42 34 41 44 46 46 43 43 42 40 39 36 31 24 19 15 11 8
28 24 18 14 35 66 85 98 98 95 100 80 87 77 55 51 56 56 53 50 47 40 27 14 10 9 9 8 8 8 7 6
24 20 42 68 97 98 97 97 98 99 96 79 98 86 70 66 64 58 49 29 12 9 10 10 10 10 11 11 11 10 8 8
23 51 78 91 100 98 97 96 96 94 99 89 75 69 70 62 58 45 27 16 12 10 12 14 15 15 14 13 12 12 10 10
35 67 94 100 98 88 68 70 70 86 85 82 73 71 60 58 53 37 18 14 16 17 18 17 16 14 14 13 13 12 11 10
73 85 96 71 57 53 43 43 64 79 74 67 61 61 61 44 26 20 20 20 19 19 19 18 17 16 14 14 16 16 15 13
72 54 57 50 49 50 54 54 60 60 66 68 62 49 30 25 26 25 24 23 22 23 22 24 24 22 20 18 16 17 18 18
64 63 68 74 61 58 62 64 66 65 60 46 31 29 31 33 34 36 36 35 38 38 29 20 18 24 25 25 24 21 18 18
79 96 71 62 55 60 67 68 58 44 38 34 34 38 47 57 55 44 36 33 25 19 15 17 20 23 26 28 28 24 20 17
98 62 60 61 64 72 66 46 45 47 49 56 63 58 43 37 32 28 26 24 19 16 19 24 31 37 35 31 24 19 15 13
58 85 84 70 64 49 48 52 53 52 47 41 39 39 35 30 26 26 24 20 19 24 35 43 42 33 27 19 15 13 16 20
72 69 64 48 38 38 44 50 49 43 38 40 40 34 30 27 29 22 22 26 32 40 47 42 40 28 16 15 18 25 61 44
62 51 42 36 40 46 49 46 44 46 45 41 36 33 34 33 26 30 36 44 50 48 41 30 18 15 18 27 63 84 91 63

GFSFLT2_500_rhum_006.txt.gz
RH
97 95 44 39 16 8 8 11 10 8 6 6 6 6 7 10 12 13 13 28 40 42 34 29 10 15 20 23 14 12 17 24
72 66 48 46 19 7 11 9 7 6 4 5 7 10 14 15 15 13 26 36 46 40 28 19 16 14 18 20 25 26 26 26
35 37 34 32 22 11 9 7 5 4 6 9 15 17 23 21 18 22 46 57 48 39 25 18 17 21 28 33 33 34 35 32
22 15 21 18 12 7 5 5 10 13 15 18 17 18 28 28 30 36 63 64 46 30 23 26 29 35 36 39 38 38 36 33
12 11 10 8 8 13 19 26 24 21 20 20 23 34 39 41 40 48 70 60 42 34 28 32 35 38 40 37 38 37 36 35
8 10 14 17 19 23 22 22 24 18 21 27 46 70 88 96 83 73 55 48 47 42 36 43 37 36 42 39 37 36 35 32
18 20 18 19 21 24 25 19 12 38 60 53 67 99 98 98 99 96 73 75 61 54 53 57 44 39 41 42 40 32 20 15
21 22 26 28 29 19 37 44 48 79 97 99 98 93 98 98 98 97 87 75 63 67 64 58 50 44 40 25 14 8 8 9
27 34 30 25 28 42 75 70 98 99 95 93 94 82 82 74 91 86 69 83 88 78 57 55 48 43 38 13 8 8 12 14
30 46 54 64 67 79 97 99 96 97 96 86 81 92 93 77 60 52 79 94 81 64 52 31 25 21 23 22 20 20 20 20
52 55 51 75 95 98 90 79 82 65 66 60 59 58 57 66 80 80 70 70 67 43 26 25 29 27 26 26 25 24 23 21
50 56 65 62 53 47 46 41 41 54 62 54 57 61 70 72 70 61 51 40 32 27 28 28 28 29 33 31 28 27 26 25
64 73 72 63 49 42 34 40 74 69 52 50 47 42 38 34 32 32 33 34 32 30 32 36 42 39 35 34 36 35 31 26
77 96 73 42 54 64 72 81 50 37 26 27 32 34 35 39 46 51 54 57 55 56 53 47 46 44 45 44 38 32 27 23
88 73 26 23 28 34 49 27 24 40 57 51 47 50 57 63 67 69 65 64 62 54 50 50 52 48 40 35 31 28 25 25
29 25 21 23 26 21 23 29 37 53 70 69 67 60 59 61 62 66 66 61 56 56 54 51 43 41 36 32 29 27 24 20
22 23 24 21 20 20 22 27 30 33 39 45 49 56 63 66 66 61 58 57 57 50 45 42 38 36 34 32 29 27 25 22
20 20 21 20 20 21 23 25 27 30 30 33 42 51 56 60 58 60 58 53 45 39 37 37 36 33 30 30 28 25 17 6
23 24 24 24 24 25 27 30 30 27 30 35 41 48 58 62 59 54 50 46 40 42 42 40 35 34 32 29 23 7 5 7
28 28 29 29 31 33 32 28 29 34 32 36 48 52 54 52 51 55 53 53 52 49 37 33 32 32 28 12 5 9 10 14

GFSFLT2_500_rhum_009.txt.gz
RH
95 96 95 92 95 65 12 7 8 8 6 5 5 6 6 6 7 8 10 10 11 19 34 39 33 18 14 12 12 16 17 23
96 98 97 90 56 19 7 6 7 6 5 5 4 4 6 9 11 11 13 12 14 26 54 45 27 20 17 13 14 14 20 25
92 94 93 88 94 23 8 6 6 8 10 13 17 16 13 13 19 25 17 15 19 30 51 42 25 20 23 23 21 24 26 28
39 35 34 28 20 14 12 13 16 20 19 17 16 19 21 35 55 60 72 53 32 35 27 35 40 28 21 29 36 37 34 34
16 9 11 11 13 15 19 21 18 19 15 13 26 41 49 62 77 81 89 91 72 61 48 44 42 39 33 42 40 44 41 38
10 10 11 16 16 16 17 20 20 23 23 30 63 83 83 86 98 99 96 96 90 80 75 64 54 52 47 58 51 49 45 43
14 16 18 20 23 27 27 22 41 44 52 66 98 95 88 97 100 89 96 91 91 79 69 63 64 62 57 61 57 50 43 34
25 26 28 27 28 28 42 53 76 100 98 94 94 86 74 78 73 78 70 69 82 81 57 79 88 82 76 60 53 48 43 25
36 36 32 34 50 63 64 68 100 98 97 95 83 94 92 79 57 54 74 71 57 62 65 82 76 84 63 51 34 24 22 24
46 54 55 56 62 83 97 93 82 68 59 62 62 59 55 54 64 85 72 65 67 67 68 63 65 62 51 31 26 25 25 25
70 67 58 59 77 73 55 46 39 42 49 46 42 42 43 41 41 44 44 42 38 38 39 38 35 32 28 26 27 25 27 27
50 50 77 80 71 62 40 43 46 45 38 39 33 39 44 42 40 38 36 32 31 33 36 42 45 42 41 42 45 45 43 41
52 70 70 71 74 36 23 21 17 19 26 28 25 24 24 26 28 33 40 51 53 54 55 62 64 65 59 55 54 54 53 48
77 69 69 54 35 23 20 20 21 22 23 22 23 26 28 36 48 59 59 62 65 65 64 67 69 62 55 46 39 38 38 34
38 27 32 26 24 23 21 20 20 19 18 18 19 26 32 33 36 43 53 61 64 65 65 60 52 46 46 41 35 31 26 26
21 21 21 23 20 20 20 21 23 23 23 22 23 24 26 27 32 42 52 61 64 60 55 49 50 46 37 39 33 23 17 14
19 20 21 21 22 22 25 31 33 32 31 30 30 29 30 32 34 47 54 60 56 52 54 56 43 36 38 26 20 18 15 14
24 25 25 26 27 29 33 36 37 36 39 41 39 39 40 33 42 52 57 56 58 59 55 49 46 42 22 19 17 15 14 10
30 31 31 32 33 34 37 40 41 44 51 49 45 40 32 30 49 60 64 68 64 60 60 54 40 25 20 17 14 7 3 3
29 25 26 33 36 38 41 44 46 47 48 47 41 35 30 38 61 71 72 68 63 56 47 36 24 20 16 9 4 4 6 8

GFSFLT2_500_rhum_012.txt.gz
RH
96 96 96 96 97 95 84 53 22 8 7 6 6 6 4 6 8 11 11 10 16 16 14 16 21 48 40 21 17 13 11 13
96 95 97 96 96 94 79 46 18 8 8 7 8 7 12 14 12 12 14 38 63 70 29 18 23 39 39 25 20 18 20 18
96 96 95 92 93 83 35 10 9 9 9 9 12 14 12 12 14 32 53 53 74 87 85 57 35 39 38 40 35 26 28 25
90 94 83 54 25 23 24 14 7 13 14 14 12 14 29 58 66 58 66 59 80 93 88 76 72 58 46 48 45 47 38 34
8 12 17 14 10 9 12 15 19 21 30 28 34 35 63 89 74 67 69 66 78 75 72 65 62 56 54 56 52 60 56 50
7 8 8 9 15 16 21 25 24 40 51 86 86 89 78 73 70 70 71 67 65 62 50 48 50 56 60 52 60 67 63 60
11 15 18 18 21 22 24 42 56 59 91 100 97 73 66 69 67 70 64 51 43 54 53 46 41 52 46 54 62 90 79 70
27 26 26 25 31 46 63 77 82 96 98 85 57 50 53 54 40 37 33 30 59 73 56 41 47 53 58 55 56 57 69 62
30 30 37 47 54 60 80 98 86 60 44 45 61 62 34 25 30 35 33 36 74 97 62 45 37 36 38 35 36 42 50 48
40 44 54 58 57 65 80 57 43 33 38 34 30 18 22 22 23 27 30 34 36 37 37 38 37 39 40 40 40 42 38 34
44 47 51 56 50 89 66 56 24 20 17 17 18 17 18 17 19 22 23 24 25 26 28 31 32 35 35 35 32 41 56 52
48 43 36 47 61 59 54 21 17 17 17 17 17 18 18 18 17 18 20 22 24 28 32 38 47 56 54 58 58 62 64 59
31 49 62 62 56 34 15 18 17 17 18 20 22 24 23 24 24 23 21 21 21 24 32 38 45 55 56 58 54 48 52 52
54 46 33 22 20 17 18 18 18 21 24 27 30 32 31 32 34 32 28 25 25 25 40 42 47 53 51 53 52 52 47 40
39 43 20 18 19 20 19 20 23 25 28 33 35 38 39 38 38 36 34 28 25 32 49 52 54 62 64 56 46 39 32 31
28 19 19 20 21 22 23 25 25 30 31 32 37 32 38 42 42 38 37 31 28 42 60 68 66 58 51 43 37 33 29 24
17 20 25 26 26 28 29 31 30 30 33 37 40 42 44 45 45 41 40 33 37 58 68 69 61 47 38 32 27 21 17 14
19 26 30 28 30 32 32 29 30 34 36 38 43 44 48 47 44 46 42 43 60 66 66 55 41 36 31 24 18 14 11 9
24 29 26 23 27 27 24 26 27 28 27 26 27 29 35 41 47 49 50 64 69 68 56 47 40 32 23 17 13 12 12 7
26 22 20 21 20 21 23 26 26 25 26 27 31 37 42 47 48 54 65 76 74 66 59 50 35 26 18 11 8 6 7 8